星链-33883 (STARLINK-33883)

导读

STARLINK-33883是美国SpaceX公司星链(Starlink)星座的卫星,于2025年5月2日发射升空。作为星链全球低轨宽带互联网星座的一员,它运行在近地轨道,依托星链的卫星互联网络,为全球尤其是偏远地区提供高速低延迟的宽带互联网服务。卫星配备霍尔推进器,并支持卫星间激光通信技术,助力实现全球覆盖的太空互联网基础设施建设。

基本信息
目录编号:
63781
目录名称:
STARLINK-33883
国际标识:
2025-091G
轨道中心:
EARTH
卫星名称:
星链-33883
卫星全名:
星链-33883 (STARLINK-33883)
卫星状态:
在轨 (已飞行498 天)
发射日期:
2025-05-02 UTC
国别 :
美国 (US)
星等 :
--
该卫星已列入 空间交会检测服务 Space Conjunction Data Service (SCDS) ,当前飞行风险评估等级: 无高风险
轨道信息
数据来源 国际轨道数据
星历时间: 2026-09-12T06:26:42+0800
23小时前
查看轨道信息
半长轴: 6861.156km
偏心率: 0.0001757
轨道倾角: 43.000°
近地点辐角 283.346°
升交点赤经 80.916°
平近点角 76.719°
近地点: 481.813km
远地点: 484.225km
周期: 94.266分钟
每日圈数: 15.275901
详细信息
固有亮度:
5
最大亮度:
2.5
卫星平台:
Starlink V1.0
覆盖范围:
全球
运营商:
太空探索技术公司
运营商所在国:
美国
制造商(研发单位):
太空探索技术公司
制造商所在国:
美国
使用方式:
暂无
卫星简介
Starlink 计划是 SpaceX 推出的全球卫星互联网项目,通过发射低轨道卫星,为全球尤其是偏远地区提供高速、低延迟的互联网服务。自 2019 年起,Starlink 已部署数千颗卫星,旨在缩小全球数字鸿沟,推动互联网普及。该项目还为军事、航空等行业提供通信支持,带来广泛经济效益。
2D轨道图
3D轨道图
轨道高度分析图
轨道倾角分析图
轨道综合分析图
查看轨道综合分析图
交会数据列表
事件ID 空间交会对象 最接近时刻(TCA) 交会距离 交会风险概率(CRP) 交会风险指数(CRI) 操作
CDM_260914-121205-612106-378121
2026-09-14T
12:12:13+0000
0.837 km
远距离
3.106688E-5 中风险 0.65
CDM_260914-134605-612106-378121
2026-09-14T
13:46:22+0000
0.852 km
远距离
2.928594E-5 中风险 0.64
CDM_260914-103805-612106-378121
2026-09-14T
10:38:04+0000
2.030 km
极远距离
1.825357E-6 低风险 0.4
CDM_260914-152005-612106-378121
2026-09-14T
15:20:32+0000
2.100 km
极远距离
1.686359E-6 低风险 0.4
与全量物体交会距离演化趋势
与全量物体交会风险概率演化趋势